(54) Alexandra
ephemeris date magn radius delta ra dec elong phase
Today25 Aug 202613.72.995 AU3.971 AU10h51m+01°44'13.1°4.4°
Opposition1 May 202711.42.505 AU1.533 AU14h04m-33°28'160.4°7.7°
(54) Alexandra - 2026-08-25
astro.vanbuitenen.nl


 
-1 year
-1 month
-1 day
Now
+1 day
+1 month
+1 year

The interactive orbit chart above shows the body's path through the solar system and its position at the given date. Green and blue lines are shown perpendicular to the ecliptic plane: Green if the path is above the ecliptic plane, blue if it is below. (Left-click and drag to rotate the view; Right-click and drag to move the view; Use scroll wheel to zoom in our out.)

The orbital elements of Alexandra are:

            e (Eccentricity)                : 0.1991502
            a (Semimajor axis)              : 2.7102403
            i (Inclination)                 : 11.83626
            Ω (Longitude of ascending node) : 313.01339
            ω (Argument of perihelion)      : 346.35813
            M (Mean anomaly)                : 230.77822
            Epoch                           : 2026 Jun 09

            L (Longitude of perihelion)     : 299.65107
            B (Latitude of perihelion)      : -2.77288
            P (Orbital period in years)     : 4.46            
        

The light curve chart below shows the estimated development of the minor planet's magnitude.


The all-sky chart below shows the path of the minor planet over the same period as the light curve. The current position is marked yellow.





The following chart shows the path of the minor planet in the next few days. The field of view is optimized for (~10x50) binoculars and finderscopes.




Ephemerides:
Date       Time       RA (2000)    DEC (2000)    delta   radius  elong  phase   PA    magn
2026-08-25 00:00 UT   10 51 29.3   +01 44 43     3.971    2.995   13.1    4.4   135   13.7 
2026-08-25 03:58 UT   10 51 42.6   +01 43 08     3.971    2.995   13.0    4.4   135   13.7 
2026-08-26 00:00 UT   10 52 49.8   +01 35 12     3.972    2.994   12.6    4.2   136   13.7 
2026-08-27 00:00 UT   10 54 10.4   +01 25 38     3.973    2.992   12.0    4.0   138   13.7 
2026-08-28 00:00 UT   10 55 31.2   +01 16 03     3.974    2.991   11.5    3.9   139   13.7 
2026-08-29 00:00 UT   10 56 52.0   +01 06 26     3.974    2.989   11.0    3.7   140   13.7 
2026-08-30 00:00 UT   10 58 12.9   +00 56 46     3.975    2.987   10.5    3.5   142   13.6 
2026-08-31 00:00 UT   10 59 33.8   +00 47 04     3.975    2.986   10.0    3.4   144   13.6 
2026-09-01 00:00 UT   11 00 54.9   +00 37 21     3.975    2.984    9.5    3.2   146   13.6 
2026-09-02 00:00 UT   11 02 16.1   +00 27 35     3.975    2.983    9.0    3.0   148   13.6 
2026-09-03 00:00 UT   11 03 37.3   +00 17 47     3.975    2.981    8.6    2.9   151   13.6 
2026-09-04 00:00 UT   11 04 58.6   +00 07 57     3.974    2.979    8.1    2.7   153   13.6 
2026-09-05 00:00 UT   11 06 20.0   +00 01 55     3.974    2.978    7.7    2.6   156   13.6 
2026-09-06 00:00 UT   11 07 41.5   +00 11 49     3.973    2.976    7.3    2.5   160   13.6 
2026-09-07 00:00 UT   11 09 03.1   +00 21 45     3.972    2.974    6.9    2.3   164   13.6 
2026-09-08 00:00 UT   11 10 24.8   +00 31 43     3.971    2.973    6.6    2.2   168   13.5 
2026-09-09 00:00 UT   11 11 46.5   +00 41 43     3.970    2.971    6.3    2.1   172   13.5 
2026-09-10 00:00 UT   11 13 08.3   +00 51 44     3.969    2.969    6.0    2.0   177   13.5 
2026-09-11 00:00 UT   11 14 30.2   -01 01 48     3.968    2.968    5.8    2.0   183   13.5 
2026-09-12 00:00 UT   11 15 52.1   -01 11 53     3.966    2.966    5.7    1.9   188   13.5 
2026-09-13 00:00 UT   11 17 14.1   -01 22 00     3.964    2.964    5.6    1.9   194   13.5 
2026-09-14 00:00 UT   11 18 36.1   -01 32 09     3.963    2.963    5.5    1.9   201   13.5 
2026-09-15 00:00 UT   11 19 58.2   -01 42 20     3.961    2.961    5.5    1.9   207   13.5 
2026-09-16 00:00 UT   11 21 20.4   -01 52 32     3.958    2.959    5.6    1.9   213   13.5 


    Terminology:
            
    delta:  distance between minor planet and earth in AU
    radius: distance between minor planet and sun in AU
    magn:   magnitude (brightness) estimate    
    ra:     right ascension in hours (24h = 360deg)
    dec:    declination in degrees
    elong:  elongation in degrees (angle sun-earth-minor planet)    
    phase:  phase angle in degrees (angle sun-minor planet-earth)        
    AU:     Astronomical Unit (mean distance between earth and sun: 149597870.7 km
    

Orbital elements provided by the MPC (Minor Planet Center).
Calculations by a modified version of AAPlus, a C# implementation of the AA+ project by PJ Naughter from the algorithms presented in the book "Astronomical Algorithms" by Jean Meeus.
NGC2000 dso catalog and star labels from VizieR as provided by the Strasbourg astronomical Data Center.
Tycho2 catalog from the ESO archive.